World > North America > United States > Texas

Perryville, Texas Regional Weather

Lat: 32.72N, Lon: 94.93W
Wx Zone: TXZ125Web Search
Perryville Weather Warning NWS WEATHER ALERT FOR THE PERRYVILLE, TX AREA - Issued: 606 AM CDT Fri Apr 16 2021 Perryville Weather Warning  

If you are on your PC, you can easily pass this page to your phone by scanning the QR Code near the bottom with your camera.

Feedback


°F Click to change Perryville hourly weather to Imperial units.Click to change Perryville hourly weather to Metric units. °C
Perryville Weather Map
UTC Time: 4/16/2021, 22:51
Your Time:

Perryville, TX Regional Weather

Expires:202104162300;;660069
ASUS44 KFWD 162215
RWRTX 
NORTH TEXAS HOURLY WEATHER ROUNDUP
NATIONAL WEATHER SERVICE FORT WORTH TX
500 PM CDT FRI APR 16 2021

NOTE: "FAIR" INDICATES FEW OR NO CLOUDS BELOW 12,000 FEET WITH NO
SIGNIFICANT WEATHER AND/OR OBSTRUCTIONS TO VISIBILITY.


TXZ095>097-106>112-122>126-135>138-148>153-164>167-162300-
EAST TEXAS
  
CITY           SKY/WX    TMP DP  RH WIND       PRES   REMARKS
PARIS          CLOUDY    52  51  97 E8        29.85R                  
SULPHUR SPRNGS CLOUDY    55  55  99 CALM      29.86S                  
GILMER         DRIZZLE   54  53  97 N3        29.83R                  
TYLER          CLOUDY    58  56  93 N6        29.81R FOG              
LONGVIEW       LGT RAIN  57  54  89 NE5       29.79R FOG              
MARSHALL       CLOUDY    55  53  94 E3        29.82F                  
ATHENS         CLOUDY    59  55  88 CALM      29.80R                  
PALESTINE      MIX PCPN  57  57 100 NE3       29.80S FOG              
JACKSONVILLE   DRIZZLE   55  55 100 CALM      29.82R                  
HENDERSON      DRIZZLE   57  55  95 CALM      29.81R                  
CENTER         CLOUDY    61  57  88 SE3       29.80R                  
NACOGDOCHES    LGT RAIN  59  57  93 CALM      29.79S                  
LUFKIN         CLOUDY    61  60  97 E9        29.76F                  
$$

SUPPLEMENTAL OBSERVATIONS (NWS FORT WORTH AREA)
  
CITY           SKY/WX    TMP DP  RH WIND       PRES   REMARKS
CADDO GRASSLND   N/A     54  52  94 E2          N/A                   
LBJ GRASSLAND    N/A     57  55  94 NW10G18     N/A                   
POSSUM KINGDOM   N/A     55  50  82 NW14        N/A                   
GRANBURY         N/A     61  57  88 NW16        N/A                   
COMANCHE         N/A     57  54  88 N14         N/A                   
TEMPLE           N/A     64  61  88 N8          N/A                   
LAKE LIMESTONE   N/A     61  57  88 N6          N/A                   
PALESTINE        N/A     57  55  94 NE3         N/A                   
$$

SUPPLEMENTAL OBSERVATIONS (NWS NORMAN AREA)
  
CITY           SKY/WX    TMP DP  RH WIND       PRES   REMARKS
GOODLETT         N/A     55  43  64 N21       29.97R                  
ODELL            N/A     55  45  69 N21       29.97R                  
CROWELL          N/A     58  46  66 VRB21     29.96R                  
KNOX CITY        N/A     59  46  62 N14       29.95S                  
SEYMOUR          N/A     57  48  72 N15       29.94R                  
MILLERS CREEK    N/A     57  46  67 N15G24      N/A                   
$$

SUPPLEMENTAL OBSERVATIONS (NWS SAN ANGELO AREA)
  
CITY           SKY/WX    TMP DP  RH WIND       PRES   REMARKS
WEINERT          N/A     57  46  68 N16       29.95R                  
HASKELL          N/A     56  48  74 N17       29.95R                  
THROCKMORTON     N/A     57  50  79 N9        29.93R                  
STAMFORD         N/A     56  49  76 N22       29.95S                  
CLYDE            N/A     53  49  85 VRB16     29.93S                  
HAMBY            N/A     55  50  82 N13         N/A                   
IVIE RESERVOIR   N/A     57  50  77 N16G22      N/A                   
COLORADO BEND    N/A     61  57  88 N7          N/A                   
$$

SUPPLEMENTAL OBSERVATIONS (NWS SHREVEPORT AREA)
  
CITY           SKY/WX    TMP DP  RH WIND       PRES   REMARKS
TEXARKANA        N/A     54  52  94 NE3         N/A                   
LINDEN           N/A     54  50  87 E5          N/A                   
LUFKIN           N/A     59  55  88 MISG        N/A                   
N SABINE NF      N/A     59  57  94 MISG        N/A                   
$$

SUPPLEMENTAL OBSERVATIONS ARE A COLLECTION OF AUTOMATED INSTRUMENTS
THAT ARE MAINTAINED BY A VARIETY OF FEDERAL AND STATE AGENCIES. 
CERTAIN ELEMENTS...SUCH AS HUMIDITY VALUES AND SUSTAINED WIND 
SPEEDS...MAY BE APPROXIMATED.

  

SKY/WX - Weather  TMP - Temperature  DP - Dew Point  RH - Relative Humidity
WIND - Wind Direction/Speed PRES - Barometric Pressure VSB - Visibility
WCI - Wind Chill Index E13G22 Wind - East Wind 13 mph/Gusts of 22 mph